Temp
21 21 21 20 18 15 17 19 20 23 25 24 25 24 24 24 23 22 22 23 24 24 23 22 21 21 21 21 21 21 21 22 22 22 21 21 21 20 19 19 19 19 18 18 18 18 18 18 18
21 21 20 14 16 17 18 19 21 21 24 25 25 24 25 25 22 21 21 23 23 23 23 22 22 22 21 21 21 21 21 21 21 21 20 20 20 20 20 19 19 19 19 18 18 18 18 17 18
21 21 17 16 13 16 19 20 22 24 23 25 25 24 24 25 22 21 23 24 23 23 23 22 22 22 21 21 21 21 20 20 20 20 20 20 20 19 19 18 18 18 18 18 18 17 18 17 17
20 17 14 16 16 17 19 22 22 23 24 24 25 25 24 23 22 24 24 23 23 22 22 22 21 20 21 21 21 21 20 20 20 20 20 19 18 18 18 18 18 18 18 18 17 17 17 17 17
19 14 16 16 15 17 18 20 22 23 24 24 24 25 24 23 23 23 23 23 23 22 21 21 20 19 19 19 19 19 19 19 19 19 19 19 18 18 18 18 18 18 18 18 17 17 17 17 17
15 13 15 17 18 18 20 21 23 23 23 23 24 22 23 21 22 22 22 22 22 22 21 20 20 19 19 18 18 18 19 19 19 19 18 18 18 18 17 18 17 17 17 17 17 17 16 16 16
16 14 15 16 17 19 20 21 23 23 22 22 23 22 22 19 21 21 22 21 21 21 21 20 19 19 19 18 18 18 18 18 18 18 18 18 17 17 17 18 17 18 16 17 17 16 16 16 16
14 15 16 16 20 18 22 24 24 23 25 23 22 23 23 19 20 20 20 20 20 20 20 19 19 19 19 18 18 18 18 17 18 18 17 18 17 18 18 19 19 18 16 16 17 16 16 16 16
14 15 14 17 17 19 22 22 22 22 24 24 24 23 20 20 19 19 18 18 18 18 19 19 19 18 18 18 18 17 17 17 17 18 17 17 17 17 17 18 18 17 17 16 16 16 16 16 16
15 13 16 18 19 21 21 21 22 22 20 22 25 20 18 17 17 17 16 16 17 18 18 19 18 18 18 18 18 18 17 16 16 17 16 16 16 16 16 15 16 17 17 16 16 16 16 16 16
16 17 17 19 18 20 20 19 21 22 21 21 23 23 16 16 16 17 17 17 16 18 18 18 18 17 18 18 18 18 17 17 16 16 16 16 15 16 16 17 16 16 17 15 15 15 15 15 15
17 16 18 19 19 20 19 20 20 19 21 22 21 22 16 16 16 16 16 17 17 18 18 18 18 17 17 17 18 18 16 16 16 15 15 15 15 15 15 16 16 15 16 15 14 15 15 15 15
16 18 18 19 19 19 19 19 19 19 20 21 20 19 17 16 17 17 17 17 18 18 18 18 17 17 17 17 17 17 16 16 16 16 15 15 15 15 14 14 14 14 15 14 14 15 15 15 15
18 18 18 18 19 19 20 20 19 20 20 20 20 19 17 17 17 17 16 17 18 19 19 18 17 16 16 16 17 17 16 16 16 16 15 15 15 14 13 13 14 14 14 14 14 15 15 15 15
18 17 17 17 18 18 19 18 18 20 20 20 20 19 18 17 17 17 17 17 19 19 19 18 18 16 16 16 17 17 17 16 15 15 15 15 14 14 14 14 14 14 14 14 13 14 14 14 14
18 18 16 18 18 19 20 20 21 21 19 19 19 19 19 17 17 18 18 18 18 18 19 18 18 16 16 16 16 17 17 17 16 15 14 14 14 14 14 15 14 14 14 13 13 14 14 13 14
16 15 16 18 19 20 18 20 22 19 20 19 19 18 18 17 17 18 19 19 18 19 18 18 17 17 15 15 16 16 16 17 16 16 14 14 14 14 13 14 13 13 13 13 13 14 15 13 13
15 15 15 16 18 19 17 18 18 18 18 18 17 16 16 17 17 20 20 20 19 18 18 18 17 16 15 15 15 15 15 15 15 16 15 15 14 14 14 13 14 13 13 13 13 14 14 15 14
17 16 16 16 18 18 16 16 16 16 16 15 16 16 16 17 18 20 22 19 17 17 16 17 16 16 15 14 14 14 14 14 14 14 14 14 14 14 14 14 13 13 13 13 14 13 13 12 13
15 15 14 15 17 17 16 17 17 17 17 18 18 19 17 17 18 18 18 16 16 15 15 15 14 14 14 14 13 13 12 13 14 14 14 14 14 14 14 14 13 13 13 12 13 12 12 12 12
14 14 15 15 16 16 15 17 18 19 19 19 18 18 18 18 18 17 15 15 15 14 15 15 13 14 14 13 13 12 11 12 12 14 13 14 14 13 14 14 13 13 13 12 13 13 13 12 12
14 15 15 15 15 13 15 14 17 18 19 19 20 18 18 18 18 18 16 15 14 14 14 14 14 13 13 13 12 12 11 11 11 13 13 13 13 13 14 13 13 13 13 12 12 13 13 13 12
14 14 15 15 13 13 13 13 16 17 17 17 19 19 17 18 18 17 17 16 15 14 14 14 13 13 13 13 13 12 12 12 11 12 12 13 13 12 13 14 13 13 12 12 12 13 13 13 13
14 14 14 13 13 11 14 13 14 16 17 18 19 19 19 19 18 18 18 16 14 14 14 13 13 13 12 12 13 14 13 11 10 11 12 11 11 12 13 13 13 12 13 12 11 13 13 14 13
13 13 9 12 13 13 15 14 15 17 18 18 19 19 19 19 19 17 17 15 14 14 14 13 13 13 12 12 13 13 13 12 12 10 11 11 11 11 12 12 12 12 11 12 12 12 13 13 13
12 13 11 13 13 14 15 14 15 17 16 17 16 17 17 16 17 17 17 17 14 14 14 13 13 12 12 12 12 13 13 13 12 11 11 11 11 12 12 12 12 12 11 11 10 11 11 12 13
12 12 13 12 13 13 14 15 17 16 15 15 16 16 16 16 16 17 18 17 14 14 14 13 13 12 12 12 12 13 13 12 12 11 11 12 11 12 11 12 11 11 10 10 10 10 11 12 13
13 13 12 12 13 13 14 14 15 15 14 15 15 15 15 16 16 17 18 16 14 14 14 13 13 12 12 12 11 12 12 12 13 12 11 11 12 12 11 11 11 10 10 10 10 10 11 11 12
12 12 11 12 12 14 14 14 16 15 14 14 15 15 15 15 15 16 16 15 14 14 13 12 12 12 12 12 11 11 12 12 13 12 11 11 11 11 12 11 11 11 11 11 10 11 11 11 11
13 13 13 13 13 13 14 14 14 14 15 15 15 15 15 15 16 15 15 14 13 13 12 12 12 12 12 12 12 11 12 12 12 12 12 11 11 11 12 12 12 12 11 11 11 12 12 12 12
Height
763 765 765 768 796 807 807 791 774 766 758 746 742 749 752 751 763 780 746 747 749 752 754 758 760 763 766 767 767 770 772 775 777 777 779 781 784 788 791 794 797 800 802 805 807 809 811 815 816
762 764 765 781 806 814 803 779 774 763 749 743 742 745 747 751 745 745 746 747 749 751 754 757 759 762 765 767 769 771 773 776 778 780 781 783 785 788 790 793 796 799 802 806 809 812 813 815 818
762 763 773 790 812 808 794 769 761 750 745 744 746 742 745 746 742 742 742 744 748 751 754 756 760 762 764 767 768 771 774 777 778 779 782 783 785 789 792 795 797 799 802 806 810 813 815 817 819
763 765 779 794 798 786 773 754 752 748 741 742 743 750 742 738 738 738 740 743 747 752 754 757 760 763 766 768 769 771 773 775 779 781 782 787 794 792 796 797 800 803 806 808 810 813 816 819 820
764 773 791 793 790 775 765 753 750 750 745 741 743 747 745 737 736 737 739 742 745 750 753 756 759 762 766 769 770 772 774 775 777 782 787 787 792 800 796 801 804 807 808 810 809 812 817 820 823
774 778 796 791 775 766 756 749 748 746 742 738 743 746 742 737 735 736 739 743 746 748 752 756 758 761 764 768 770 773 773 775 777 779 785 786 787 784 803 793 806 811 810 813 812 812 818 821 824
774 784 789 783 776 765 756 744 748 745 743 739 729 745 738 736 735 737 740 744 746 747 750 754 758 759 762 766 769 771 774 775 776 779 782 783 785 790 797 794 798 805 813 812 810 812 817 822 825
769 775 782 780 763 767 744 739 736 740 737 728 727 740 739 728 733 737 741 743 745 747 749 752 755 758 760 763 767 769 771 773 775 777 780 782 786 790 794 791 791 797 809 811 811 811 818 822 826
763 780 786 771 769 758 743 746 738 734 733 730 725 727 727 725 731 736 740 742 744 746 746 750 753 756 759 761 764 767 770 771 773 777 780 783 787 789 792 792 792 795 802 808 811 811 817 822 827
764 778 770 758 754 750 745 745 741 740 740 733 726 727 728 729 729 732 734 738 740 743 743 745 750 754 757 760 761 765 768 770 772 775 778 781 785 788 790 791 791 796 799 802 809 812 819 823 827
756 754 755 751 748 745 745 746 738 739 743 733 731 728 731 732 731 732 731 733 733 738 742 741 746 751 754 756 759 761 765 768 770 773 776 780 783 786 788 789 791 793 799 803 809 813 819 823 826
752 747 747 745 742 743 745 739 739 739 733 722 723 725 729 733 729 726 729 728 731 736 739 741 743 748 751 754 756 759 762 765 768 771 774 777 780 782 785 786 790 792 799 800 807 813 818 822 826
747 744 742 740 740 740 739 739 736 732 726 718 721 722 724 724 726 722 723 727 729 731 736 739 741 745 748 751 753 756 760 763 766 769 772 775 776 777 779 782 786 790 795 800 806 813 818 822 826
736 739 739 739 737 736 737 729 732 723 720 719 719 718 718 719 717 722 723 722 724 726 730 736 739 743 747 748 750 752 758 761 763 765 768 771 773 774 775 776 781 787 792 797 804 811 816 821 825
734 743 740 738 735 735 729 726 728 716 715 718 714 714 713 713 715 715 711 713 714 719 726 731 736 740 745 747 748 749 753 757 760 762 765 768 769 772 774 772 777 783 792 798 805 811 816 821 825
735 738 748 730 729 725 729 706 713 707 713 715 713 711 712 709 707 707 710 709 711 716 720 726 731 735 741 745 746 747 751 754 757 759 762 765 768 770 774 774 778 783 791 797 805 809 815 820 824
745 753 745 736 724 722 729 714 707 708 708 712 711 710 710 708 705 701 700 704 705 710 715 721 727 731 738 743 746 747 750 752 755 757 759 763 766 770 772 776 777 783 791 796 801 806 811 818 824
750 749 747 743 728 724 726 714 716 711 712 711 710 709 708 707 702 696 695 696 699 704 710 716 724 727 735 740 743 745 748 751 753 754 756 760 763 767 771 776 778 785 791 795 800 805 810 815 822
736 740 741 737 728 728 727 718 720 715 710 713 710 706 703 698 691 689 688 690 694 700 705 709 717 722 729 734 739 742 745 748 750 752 754 757 760 764 768 772 776 782 789 794 800 806 811 818 821
739 743 744 737 729 728 728 709 709 711 705 699 696 691 695 692 687 683 681 684 685 689 698 705 712 716 723 728 734 739 743 745 747 750 752 754 756 761 763 767 773 779 785 792 798 804 811 817 820
740 743 741 739 732 728 731 707 697 693 689 687 685 682 682 682 681 677 677 677 683 684 688 696 705 711 719 725 731 736 741 743 745 746 748 750 753 757 761 764 768 773 781 786 792 800 805 811 819
739 733 732 734 740 750 733 724 697 692 683 683 678 678 674 673 671 669 669 673 675 678 685 692 701 708 715 721 726 731 735 738 739 742 745 748 750 753 759 758 763 770 775 780 787 795 801 807 809
734 731 732 735 742 743 740 748 695 693 693 682 670 667 667 663 661 661 661 662 669 680 681 689 698 705 711 716 721 726 731 735 738 741 743 745 747 750 752 759 762 766 771 777 783 788 795 802 807
729 731 732 737 740 749 732 738 703 696 681 673 664 659 656 653 652 650 653 660 668 676 685 688 693 700 706 712 716 722 727 732 736 739 741 743 744 747 751 754 760 763 767 773 779 785 791 796 803
730 736 765 747 742 736 717 726 706 684 675 676 665 656 653 649 646 647 650 654 662 668 677 684 689 696 701 707 712 718 724 728 732 737 739 740 742 744 747 751 756 760 763 769 774 782 786 792 797
734 734 753 737 734 729 716 718 701 683 681 676 670 664 658 653 646 642 642 643 653 663 671 677 683 691 697 703 709 715 721 725 730 734 736 739 741 743 745 749 752 756 760 765 770 776 781 791 794
736 739 733 740 732 735 717 700 685 681 680 675 672 666 659 651 646 640 633 638 647 657 663 669 678 686 695 700 706 712 718 722 725 732 736 738 741 743 746 749 751 755 759 764 769 777 783 788 794
728 733 738 739 731 726 708 704 695 688 686 681 673 667 659 647 640 635 628 635 645 655 664 671 676 683 691 697 704 710 716 720 724 729 733 737 740 743 746 749 753 756 761 766 770 775 781 785 788
734 735 741 737 732 716 713 704 687 688 688 684 679 672 663 646 636 629 632 638 647 656 665 671 677 683 691 697 704 710 715 720 724 728 732 736 739 742 745 749 752 756 761 765 769 773 778 782 785
725 730 730 730 728 723 716 706 690 688 682 679 677 673 666 655 643 641 642 645 654 660 667 675 680 685 693 699 703 708 713 717 722 726 730 735 738 741 744 747 751 755 758 762 766 770 773 777 781
Wind_Speed
8 6 4 5 3 4 3 6 3 4 3 3 3 4 6 4 6 5 2 18 14 17 17 18 20 21 21 21 21 21 21 23 25 28 31 33 33 32 31 29 27 26 25 24 26 25 22 24 28
12 8 5 3 4 2 5 4 6 6 5 2 3 3 2 1 2 3 8 20 13 18 19 20 22 23 22 21 20 20 22 21 24 29 31 34 33 33 32 30 28 26 24 24 24 23 25 27 30
11 5 4 4 4 6 6 6 6 3 5 3 1 0 4 3 2 6 8 22 17 19 18 20 21 22 23 22 21 20 20 22 24 29 31 33 33 32 31 28 27 27 26 26 25 25 26 29 32
4 4 4 4 8 6 6 5 3 6 4 5 3 5 2 2 4 8 11 22 20 20 18 18 19 20 21 20 20 20 20 21 25 27 29 27 25 27 27 26 23 23 25 26 26 26 28 30 32
4 3 3 2 6 5 6 6 3 5 2 5 7 4 2 2 4 11 18 22 24 21 18 17 18 19 18 18 19 19 20 21 23 23 25 27 16 10 20 20 17 19 21 24 28 29 30 32 32
3 3 2 7 6 4 5 6 2 4 6 6 6 6 4 4 10 15 23 23 22 21 19 17 18 18 18 17 17 17 19 20 22 23 24 24 26 29 17 23 12 14 19 22 27 29 31 33 33
6 4 5 4 6 4 4 6 4 6 6 6 4 9 3 4 12 19 22 20 20 20 20 19 18 18 18 17 18 18 20 20 22 25 27 26 28 30 27 25 24 14 18 25 28 32 34 34 34
5 4 4 6 12 7 5 3 2 4 3 1 1 6 6 6 19 21 20 19 18 19 19 20 19 18 18 19 18 20 21 22 25 26 26 30 32 34 30 29 23 17 26 27 31 34 35 35 32
4 1 5 6 6 5 2 4 3 4 2 4 3 1 6 19 24 22 19 18 18 19 21 20 20 19 17 17 18 18 22 24 25 25 27 30 34 30 26 24 20 31 31 27 33 36 35 33 30
5 5 9 5 5 4 3 1 2 5 6 5 2 3 5 19 24 19 16 17 17 24 24 23 21 20 17 16 17 20 20 22 21 24 27 27 29 27 21 25 29 31 32 32 34 36 35 32 31
6 9 4 4 7 5 3 7 6 2 7 9 6 3 5 8 13 13 16 21 26 29 26 26 24 21 18 18 17 19 22 22 24 26 25 25 25 22 23 26 29 27 29 31 34 36 35 34 31
4 5 7 4 6 3 6 4 5 8 11 10 9 2 7 9 13 15 18 25 28 28 27 24 23 22 20 20 18 19 20 22 23 25 24 23 25 27 30 33 29 27 28 28 34 39 36 33 31
6 2 5 7 9 7 7 10 11 8 11 14 7 7 10 12 16 21 22 21 29 29 28 26 23 24 23 22 21 20 22 22 23 23 23 22 23 27 30 35 27 27 33 34 36 37 34 33 33
2 7 13 8 10 7 10 17 5 4 8 11 5 11 10 14 19 14 17 25 31 32 30 29 25 24 26 25 22 20 21 21 21 21 22 22 23 26 27 30 28 30 30 39 39 38 35 35 35
4 7 8 7 6 8 6 14 10 10 11 11 12 10 10 15 9 18 30 29 39 37 31 30 27 24 26 25 23 23 22 22 21 20 20 20 17 19 22 22 31 34 35 34 37 36 35 35 35
2 2 3 4 10 8 8 26 8 8 8 9 10 7 8 11 13 23 24 28 33 33 34 31 29 27 28 27 25 22 21 20 19 18 21 20 19 21 23 20 24 30 32 38 38 36 34 35 34
1 4 4 4 7 5 9 12 3 4 2 7 7 8 6 9 8 23 30 33 34 36 34 34 31 29 28 26 24 21 21 20 20 19 20 25 24 25 25 26 29 32 31 34 36 35 36 34 30
5 4 4 5 5 5 10 17 5 8 4 7 9 8 8 8 13 22 29 33 35 36 34 34 33 29 29 26 23 20 20 20 20 21 20 25 29 30 27 26 30 32 30 30 31 37 35 36 33
3 4 4 2 6 5 8 14 7 8 9 8 9 10 9 11 9 21 30 28 29 31 34 36 36 32 31 29 25 21 22 21 20 19 19 25 27 32 33 31 31 32 30 33 36 34 35 28 30
5 5 5 5 7 7 8 23 10 7 11 15 14 14 10 7 8 9 16 25 32 34 33 35 33 33 32 31 24 18 21 21 21 19 19 21 19 27 34 31 35 36 31 31 37 30 26 21 30
4 4 4 6 4 5 7 25 22 15 16 13 13 14 8 11 11 8 10 21 24 30 37 38 33 33 30 28 25 17 16 14 18 19 19 20 21 21 34 34 38 39 37 35 37 34 36 24 29
3 5 5 3 2 3 2 13 17 12 19 14 15 12 13 11 9 8 11 12 25 29 31 32 31 33 28 30 26 23 17 11 17 19 19 19 20 18 24 25 36 38 37 37 38 38 31 25 28
4 3 2 1 3 1 5 4 2 8 7 11 13 14 12 11 11 10 14 21 23 22 30 31 30 32 31 33 31 28 21 17 13 15 14 17 18 21 23 25 29 34 38 35 36 39 35 32 30
3 2 1 2 2 5 10 10 7 6 10 6 10 14 13 12 10 11 14 16 19 23 24 29 32 31 31 31 33 30 24 18 15 14 13 13 15 19 21 29 31 34 38 40 38 36 38 37 32
3 4 3 3 2 5 6 9 16 18 20 16 19 14 9 9 8 9 12 14 20 29 30 30 32 31 31 31 33 30 26 22 17 17 17 17 15 17 24 24 27 32 34 37 42 37 38 34 36
3 3 4 4 3 3 3 6 5 3 5 10 14 12 8 10 8 9 14 16 21 29 32 32 32 29 30 30 32 29 25 23 20 21 20 20 17 15 17 22 27 31 36 35 36 36 37 36 34
3 3 1 3 6 4 4 6 5 9 14 18 18 18 19 18 9 11 11 14 21 28 33 34 31 28 29 27 29 29 25 24 23 22 20 20 20 18 18 21 25 28 33 32 33 34 38 39 37
4 4 1 3 3 4 4 5 3 10 13 15 21 22 22 20 15 8 9 12 18 23 27 27 28 28 27 27 25 29 26 23 20 21 24 22 21 20 24 24 25 27 29 29 32 28 32 37 37
3 1 2 2 3 3 3 3 2 4 5 11 15 18 22 23 13 6 8 9 15 20 22 23 25 24 24 22 22 22 24 23 20 20 21 22 22 22 22 26 27 27 29 31 26 26 28 26 29
4 3 1 3 3 3 4 5 4 5 7 8 14 20 22 17 11 8 10 11 13 15 17 17 19 20 19 19 19 21 22 22 22 20 19 21 20 21 21 25 28 29 30 31 34 36 35 33 32
Wind_Direction
182 156 126 56 62 67 259 257 262 266 255 221 143 149 179 138 164 208 184 163 162 175 177 182 181 178 178 177 170 165 161 162 169 173 171 169 167 167 165 161 157 152 148 150 155 153 143 141 142
153 144 81 82 104 116 260 244 240 233 252 8 116 117 101 193 190 151 140 180 179 180 180 183 184 184 183 183 178 170 165 165 167 173 171 169 170 171 169 165 162 158 153 149 150 150 150 150 148
145 132 93 112 141 189 214 205 211 244 249 155 324 174 154 206 167 186 181 180 190 186 183 183 188 189 190 190 186 181 174 169 171 173 176 175 176 175 172 166 162 157 157 151 152 150 153 155 152
160 27 43 119 220 247 218 210 217 333 353 162 151 260 271 190 176 184 183 177 179 183 188 186 189 193 196 195 193 189 185 178 176 176 174 175 178 172 174 167 165 164 161 160 156 158 161 159 157
55 46 91 248 240 248 247 261 269 277 257 219 148 245 260 301 174 177 174 175 174 181 189 189 191 195 200 203 198 194 190 182 176 178 187 183 187 196 175 167 170 172 170 168 162 163 164 160 159
45 101 96 233 237 230 260 249 259 266 245 277 170 142 239 271 172 171 172 176 182 183 187 192 192 197 201 205 205 201 200 188 188 185 186 174 173 168 203 157 171 184 176 175 171 165 168 163 160
135 109 208 229 265 260 225 195 202 240 260 258 168 154 249 242 183 170 174 181 187 190 190 194 196 198 200 204 208 206 205 194 190 192 186 178 174 169 175 160 167 185 206 188 176 169 168 165 161
125 126 183 221 251 279 212 226 182 144 288 10 349 183 227 205 176 169 176 183 190 194 194 196 199 204 203 201 206 212 208 202 198 196 185 182 176 175 178 184 194 198 203 188 180 169 168 166 164
135 143 215 214 192 235 273 27 297 278 324 318 226 178 316 162 163 164 169 180 190 191 192 197 201 203 205 203 207 212 211 201 197 203 187 179 181 193 196 214 212 185 190 185 180 172 170 170 168
161 193 216 225 203 249 294 310 338 341 348 303 262 91 80 156 163 168 174 185 193 196 196 197 203 204 205 203 208 212 211 202 204 198 191 193 195 202 211 211 196 195 185 178 184 173 169 168 167
203 233 194 250 238 266 258 293 183 273 301 239 253 243 160 180 183 188 188 194 199 202 204 199 201 204 199 194 202 205 210 206 204 204 202 201 197 212 215 210 203 197 190 175 187 169 168 169 170
222 217 199 240 228 251 250 250 265 188 248 260 247 196 168 200 204 196 202 200 203 208 211 205 203 200 197 194 195 201 200 197 202 199 205 215 225 222 213 211 210 205 195 186 180 168 173 175 178
221 193 214 231 255 239 266 256 255 242 254 277 276 190 201 201 224 213 212 204 209 213 212 210 204 200 196 197 194 197 201 201 205 209 215 218 222 222 217 211 205 194 184 188 184 175 174 178 179
319 231 247 241 256 258 254 263 220 244 251 279 224 229 218 208 217 210 201 208 212 215 212 212 207 204 199 199 197 198 203 206 206 206 208 218 231 238 220 212 200 190 179 184 184 180 177 179 180
231 268 269 217 217 245 228 262 237 235 249 252 269 236 232 221 203 213 212 206 211 215 210 208 206 204 202 201 199 198 201 208 214 214 210 217 220 219 205 165 160 166 178 180 181 178 177 178 179
263 229 200 226 197 225 169 259 288 237 243 262 274 276 238 244 215 225 228 220 214 213 210 205 204 202 206 204 202 198 199 207 210 209 207 207 203 186 180 172 179 171 182 187 183 177 176 175 177
276 236 221 289 202 218 185 274 155 341 331 294 288 292 260 257 238 234 230 226 220 216 209 203 202 199 203 203 201 196 197 211 217 212 206 200 202 191 182 183 185 183 189 189 183 173 174 172 177
203 225 238 228 258 244 259 262 263 288 296 265 291 290 288 257 244 242 238 227 220 216 209 202 200 196 200 198 198 200 207 211 214 211 210 206 201 205 200 193 193 193 194 189 180 176 177 176 176
252 245 239 268 287 293 271 276 244 271 294 251 256 265 264 266 257 240 244 220 204 204 200 198 194 194 194 192 187 193 200 200 207 204 201 216 213 210 208 206 203 200 196 190 190 179 176 170 171
238 259 266 255 255 264 283 281 266 255 260 263 253 257 235 254 263 245 221 191 192 190 190 189 189 188 190 189 186 193 200 207 209 211 210 209 202 213 210 195 199 205 192 181 189 177 164 168 168
203 203 225 250 277 274 303 284 286 269 260 253 245 246 239 233 258 241 192 193 187 181 185 186 185 184 185 185 188 191 197 212 212 216 225 221 223 220 207 204 198 200 201 185 186 185 181 169 180
219 208 213 234 347 265 53 292 275 276 273 265 259 236 242 239 238 229 197 186 191 192 180 181 183 184 183 187 184 186 192 186 208 214 223 221 229 219 218 188 195 197 203 195 193 189 185 184 178
194 88 133 227 231 280 150 264 67 355 285 280 260 247 238 234 222 208 200 199 190 184 178 180 181 182 186 192 197 199 203 205 208 210 216 229 231 212 207 216 205 195 201 195 186 185 185 193 183
143 88 71 114 131 265 211 199 306 248 243 287 274 260 245 235 218 207 201 162 166 174 182 177 178 183 189 192 202 204 204 188 190 198 203 207 212 207 204 203 206 199 208 201 189 188 189 196 190
97 76 0 8 197 246 224 205 253 281 283 314 302 279 277 259 223 192 169 165 168 178 183 179 178 184 188 192 200 203 205 200 203 195 193 193 191 192 206 211 212 199 199 201 196 190 187 194 191
129 144 159 248 219 294 237 227 261 36 22 1 5 347 332 318 274 209 194 179 178 184 184 181 180 180 184 191 198 203 205 201 203 203 195 199 206 204 204 205 206 204 200 197 189 189 186 202 203
131 169 136 287 245 247 233 279 290 6 8 3 357 356 346 326 319 230 200 185 175 181 186 181 178 179 185 181 193 201 205 204 202 204 204 203 199 193 199 197 195 193 190 182 183 189 196 205 208
114 105 98 213 266 259 249 245 248 3 354 352 358 351 342 330 317 248 201 173 171 178 179 177 175 177 179 181 189 199 205 209 210 205 207 205 203 204 193 186 187 188 189 185 190 187 194 208 214
101 180 193 258 252 283 301 281 22 348 340 349 347 345 345 335 315 43 99 127 146 159 172 169 167 166 175 177 189 196 205 210 216 212 212 214 209 204 207 199 193 194 194 195 199 201 205 209 212
126 158 177 242 332 283 296 268 317 293 294 353 346 346 352 353 20 66 91 97 108 129 156 160 156 156 170 179 180 196 211 213 217 220 222 222 218 213 213 211 210 209 210 210 211 214 220 224 226